| time (UTC) | temp F | wind direction | speed MPH | gust MPH | rain 1hr in | rain 24hr in | rain mn in | humidity % | barometer mb |
| 20260504210035 | 81 | 316 | 1.0 | 4.0 | 0.00 | 0.00 | 0.00 | 23 | 1009.8 |
| 20260504204611 | 81 | 328 | 1.0 | 5.0 | 0.00 | 0.00 | 0.00 | 24 | 1009.9 |
| 20260504203030 | 81 | 275 | 1.0 | 5.0 | 0.00 | 0.00 | 0.00 | 26 | 1010.0 |
| 20260504201526 | 80 | 131 | 0.0 | 3.0 | 0.00 | 0.00 | 0.00 | 24 | 1010.0 |
| 20260504200030 | 80 | 112 | 0.0 | 4.0 | 0.00 | 0.00 | 0.00 | 26 | 1010.2 |
| 20260504194523 | 79 | 268 | 1.0 | 4.0 | 0.00 | 0.00 | 0.00 | 27 | 1010.2 |
| 20260504193023 | 80 | 86 | 1.0 | 4.0 | 0.00 | 0.00 | 0.00 | 27 | 1010.3 |
| 20260504191517 | 79 | 96 | 0.0 | 3.0 | 0.00 | 0.00 | 0.00 | 29 | 1010.5 |
| 20260504190013 | 78 | 82 | 1.0 | 4.0 | 0.00 | 0.00 | 0.00 | 29 | 1010.6 |
| 20260504184510 | 77 | 53 | 0.0 | 3.0 | 0.00 | 0.00 | 0.00 | 31 | 1010.7 |
| 20260504183008 | 76 | 290 | 0.0 | 3.0 | 0.00 | 0.00 | 0.00 | 32 | 1010.9 |
| 20260504181504 | 74 | 296 | 1.0 | 4.0 | 0.00 | 0.00 | 0.00 | 34 | 1011.2 |
| 20260504180059 | 73 | 231 | 1.0 | 5.0 | 0.00 | 0.00 | 0.00 | 37 | 1011.2 |
| 20260504174556 | 71 | 79 | 0.0 | 5.0 | 0.00 | 0.00 | 0.00 | 38 | 1011.2 |
| 20260504173052 | 70 | 88 | 1.0 | 6.0 | 0.00 | 0.00 | 0.00 | 39 | 1011.3 |
| 20260504171551 | 69 | 172 | 1.0 | 3.0 | 0.00 | 0.00 | 0.00 | 40 | 1011.4 |
| 20260504081531 | 47 | 259 | 0.0 | 1.0 | 0.00 | 0.00 | 0.00 | 76 | 1010.6 |
| 20260504050012 | 56 | 283 | 0.0 | 0.0 | 0.00 | 0.00 | 0.00 | 63 | 1009.9 |
| 20260504044522 | 58 | 283 | 0.0 | 0.0 | 0.00 | 0.00 | 0.00 | 60 | 1009.9 |
| 20260504043111 | 59 | 283 | 0.0 | 0.0 | 0.00 | 0.00 | 0.00 | 59 | 1009.8 |
| 20260504041510 | 61 | 283 | 0.0 | 0.0 | 0.00 | 0.00 | 0.00 | 57 | 1009.6 |
| 20260504040010 | 61 | 283 | 0.0 | 0.0 | 0.00 | 0.00 | 0.00 | 55 | 1009.4 |
| 20260504034509 | 64 | 283 | 0.0 | 0.0 | 0.00 | 0.00 | 0.00 | 51 | 1009.3 |
| 20260504033009 | 66 | 283 | 0.0 | 0.0 | 0.00 | 0.00 | 0.00 | 47 | 1009.0 |
| 20260504031507 | 68 | 283 | 0.0 | 0.0 | 0.00 | 0.00 | 0.00 | 43 | 1009.0 |
| 20260504030008 | 71 | 282 | 0.0 | 1.0 | 0.00 | 0.00 | 0.00 | 40 | 1009.0 |
| 20260504024509 | 72 | 281 | 0.0 | 1.0 | 0.00 | 0.00 | 0.00 | 35 | 1008.9 |
| 20260504023008 | 74 | 281 | 0.0 | 1.0 | 0.00 | 0.00 | 0.00 | 33 | 1009.0 |
| 20260504021505 | 75 | 281 | 0.0 | 1.0 | 0.00 | 0.00 | 0.00 | 31 | 1009.0 |
| 20260504020007 | 77 | 276 | 0.0 | 1.0 | 0.00 | 0.00 | 0.00 | 30 | 1009.0 |
| 20260504014503 | 79 | 276 | 0.0 | 2.0 | 0.00 | 0.00 | 0.00 | 24 | 1009.2 |
| 20260504013001 | 81 | 281 | 0.0 | 2.0 | 0.00 | 0.00 | 0.00 | 24 | 1009.4 |
| 20260504011606 | 81 | 354 | 0.0 | 3.0 | 0.00 | 0.00 | 0.00 | 24 | 1009.3 |
| 20260504010100 | 82 | 261 | 0.0 | 8.0 | 0.00 | 0.00 | 0.00 | 24 | 1009.3 |
| 20260504004555 | 83 | 110 | 1.0 | 3.0 | 0.00 | 0.00 | 0.00 | 25 | 1009.3 |
| 20260504003100 | 83 | 125 | 1.0 | 5.0 | 0.00 | 0.00 | 0.00 | 23 | 1009.5 |
| 20260504001601 | 83 | 326 | 2.0 | 6.0 | 0.00 | 0.00 | 0.00 | 22 | 1009.6 |
| 20260504000052 | 84 | 291 | 1.0 | 5.0 | 0.00 | 0.00 | 0.00 | 21 | 1009.6 |
| 20260503234551 | 84 | 171 | 0.0 | 6.0 | 0.00 | 0.00 | 0.00 | 23 | 1009.8 |
| 20260503233047 | 83 | 290 | 0.0 | 3.0 | 0.00 | 0.00 | 0.00 | 24 | 1010.1 |
| 20260503231546 | 84 | 245 | 1.0 | 5.0 | 0.00 | 0.00 | 0.00 | 23 | 1010.2 |
| 20260503230048 | 84 | 215 | 2.0 | 4.0 | 0.00 | 0.00 | 0.00 | 24 | 1010.4 |
| 20260503224542 | 84 | 126 | 1.0 | 3.0 | 0.00 | 0.00 | 0.00 | 24 | 1010.6 |
| 20260503223039 | 84 | 292 | 1.0 | 7.0 | 0.00 | 0.00 | 0.00 | 23 | 1010.8 |
| 20260503221536 | 84 | 225 | 1.0 | 6.0 | 0.00 | 0.00 | 0.00 | 24 | 1011.0 |
| 20260503220044 | 83 | 152 | 0.0 | 6.0 | 0.00 | 0.00 | 0.00 | 25 | 1011.2 |
| 20260503214530 | 83 | 127 | 1.0 | 4.0 | 0.00 | 0.00 | 0.00 | 25 | 1011.4 |
| 20260503213027 | 83 | 128 | 0.0 | 7.0 | 0.00 | 0.00 | 0.00 | 26 | 1011.6 |
| 20260503211525 | 83 | 265 | 1.0 | 6.0 | 0.00 | 0.00 | 0.00 | 24 | 1011.8 |